Regional Weather Roundup
Issued by NWS New Orleans/Baton Rouge, LA

Home | Current Version | Previous Version | Text Only | Print | Product List | Glossary On
Versions: 1 2 3 4 5 6 7 8 9 10 11 12 13 14 15 16 17 18 19 20 21 22 23 24 25 26 27 28
000
ASUS44 KLIX 171813
RWRLIX
NEW ORLEANS REGIONAL WEATHER ROUNDUP
NATIONAL WEATHER SERVICE NEW ORLEANS LA
100 PM CDT THU AUG 17 2017

NOTE: "FAIR" INDICATES FEW OR NO CLOUDS BELOW 12,000 FEET WITH NO
      SIGNIFICANT WEATHER AND/OR OBSTRUCTIONS TO VISIBILITY.
      SKY/WX - SKY CONDITION AND SIGNIFICANT WEATHER.
      TMP - AIR TEMPERATURE.     DP    - DEWPOINT TEMPERATURE.
      RH  - RELATIVE HUMIDITY.   PRES  - PRESSURE.
      HI  - HEAT INDEX.          WCI   - WIND CHILL INDEX.

*  THESE STATIONS ARE NOT NWS OR FAA STATIONS AND ARE NOT UNDER
   NWS QUALITY CONTROL.

LAZ038-040-048-061>063-065>067-069-171900-
SOUTHEAST LOUISIANA

CITY           SKY/WX    TMP DP  RH WIND       PRES   REMARKS
N.O. INTL ARPT MOSUNNY   92  77  61 NW7       30.07F HX 105
6HR MIN TEMP:  77; 6HR MAX TEMP:  92;

N.O. LAKEFRONT SUNNY     90  79  70 NW10      30.08F HX 106
6HR MIN TEMP:  80; 6HR MAX TEMP:  91;

N.O. DOWNTOWN*   N/A     93  75  55 CALM      30.09F HX 104
6HR MIN TEMP:  82; 6HR MAX TEMP:  93;

RESERVE*         N/A     94  75  52 W6        30.08F HX 106
6HR MIN TEMP:  78; 6HR MAX TEMP:  95; 6HR PCP:  0.01;

SLIDELL        MOSUNNY   90  74  59 W7        30.08F HX  99
6HR MIN TEMP:  73; 6HR MAX TEMP:  91;

BATON ROUGE    MOSUNNY   92  74  55 W8        30.07F HX 101
6HR MIN TEMP:  75; 6HR MAX TEMP:  92;

BOOTHVILLE     SUNNY     90  78  68 SW6       30.10F HX 104
6HR MIN TEMP:  85; 6HR MAX TEMP:  90;

BELLE CHASSE   MOSUNNY   91  72  53 SW8       30.08F HX  98
6HR MIN TEMP:  79; 6HR MAX TEMP:  91;

BOGALUSA*      MOCLDY    91  72  53 W7        30.10F HX  99
6HR MIN TEMP:  73; 6HR MAX TEMP:  92;

GALLIANO*      PTCLDY    90  74  59 SW8       30.09F HX 100
6HR MIN TEMP:  76; 6HR MAX TEMP:  91;

NEW ROADS*       N/A     91  76  62 SW8       30.07F HX 102
6HR MIN TEMP:  74; 6HR MAX TEMP:  91; 6HR PCP:  0.01;

GONZALES*        N/A     91  73  56 SW6       30.07F HX  99
6HR MIN TEMP:  74; 6HR MAX TEMP:  91; 6HR PCP:  0.04;

HAMMOND*       SUNNY     91  70  49 SW9       30.08F HX  97
HOUMA*         PTSUNNY   88  79  74 W7        30.08F HX 102
PORT FOURCHON* PTCLDY    88  75  66 W8        30.09F HX  97

$$

MSZ070-080>082-171900-
SOUTHERN MISSISSIPPI

CITY           SKY/WX    TMP DP  RH WIND       PRES   REMARKS
MCCOMB         MOSUNNY   90  74  59 W10       30.09F HX  99
6HR MIN TEMP:  74; 6HR MAX TEMP:  90;

GULFPORT       PTSUNNY   91  78  65 VRB5      30.07F HX 106
6HR MIN TEMP:  76; 6HR MAX TEMP:  92;

BILOXI         SUNNY     90  79  69 SW10      30.08F HX 106
6HR MIN TEMP:  78; 6HR MAX TEMP:  90;

PASCAGOULA     MOSUNNY   93  74  53 S7        30.08F HX 103
6HR MIN TEMP:  76; 6HR MAX TEMP:  94;

STENNIS ARPT*  MOSUNNY   93  75  55 W7        30.08F HX 104

$$

COASTAL OBSERVATIONS
LAKE AND NEARSHORE STATIONS

STATION/POSITION TIME  TEMP    WIND        PRES    WAVE
                       AIR SEA DIR/SP/G            HT/PER
                 (UTC) (F)     (DEG/KT/KT) (MB)    (FT/S)
PASCAGOULA       1748   88     250/  8/ 11 1018.8
WAVELAND YACHT   1748   88 86  200/  5/ 10 1018.9
GRAND ISLE       1748   88 87  220/  7/  8 1019.3
SOUTHWEST PASS   1748   87     200/  1/  3   N/A
NEW CANAL        1748   87 86  350/  7/  8 1018.6
SHELL BEACH      1748   89 89  220/  3/ 10 1018.9

OFFSHORE STATIONS

STATION/POSITION TIME  TEMP    WIND        PRES    WAVE
                       AIR SEA DIR/SP/G            HT/PER
                 (UTC) (F)     (DEG/KT/KT) (MB)    (FT/S)
64 S DAUPHIN ISL 1750   86 88  270/  4/  4 1019.4    1/ 6

$$





USA.gov is the U.S. government's official web portal to all federal, state and local government web resources and services.